Back to catalog

MSG 1 DEB

COOLER COVER

AliveGEO
NORAD 39998·DEBRIS·🇪🇺 EU

Launched Aug 28, 2002 from Guiana Space Centre

Loading…

TLE

FreshSource: Space-Track

Epoch: Sep 14, 2026, 13:25 UTC

1 39998U 02040E   26257.55948005 -.00000009  00000-0  00000-0 0  9992
2 39998  12.5082  14.3026 0009594 204.1883 192.0269  1.01194709 18748

Track MSG 1 DEB in real time with AllMySat

Download on the App Store